Date,TemperatureHighF,TemperatureAvgF,TemperatureLowF,DewpointHighF,DewpointAvgF,DewpointLowF,HumidityHigh,HumidityAvg,HumidityLow,PressureMaxIn,PressureMinIn,WindSpeedMaxMPH,WindSpeedAvgMPH,GustSpeedMaxMPH,PrecipitationSumIn
2014-1-3,70,70,70,68,68,68,94,94,94,30.00,30.00,43,43,0,0.00
2014-1-4,70,64,59,68,52,48,94,65,55,30.47,30.00,43,27,0,0.00
2014-1-5,72,68,63,70,63,54,94,83,72,30.45,30.06,30,19,0,0.00
2014-1-6,75,74,72,72,70,68,94,88,78,30.03,29.85,39,28,0,0.00
2014-1-7,63,47,32,54,37,21,75,67,49,30.50,30.36,22,17,0,0.00
2014-1-8,73,73,73,68,68,68,83,83,83,30.24,30.24,28,28,0,0.00
2014-1-9,74,72,70,72,69,64,96,91,82,30.21,30.14,25,20,0,0.00
2014-1-10,72,70,63,68,65,61,96,86,80,30.18,29.88,23,17,0,0.00
2014-1-11,59,56,50,59,56,50,100,100,100,29.98,29.91,16,12,0,0.00
2014-1-15,57,56,54,43,41,39,58,58,58,30.25,30.24,25,22,0,0.00
2014-1-16,66,62,57,54,49,43,63,60,55,30.24,30.12,20,12,0,0.00
2014-1-17,68,63,59,55,50,43,72,63,53,30.19,30.02,25,14,0,0.00
2014-1-18,64,64,63,52,50,46,63,60,55,30.09,30.02,25,20,0,0.00
2014-1-19,66,62,59,52,49,46,72,63,55,30.32,30.03,26,22,0,0.00
2014-1-20,60,57,50,48,42,34,71,57,51,30.25,29.80,26,22,0,0.00
2014-1-21,59,59,57,54,48,46,82,68,62,29.56,29.41,32,14,0,0.00
2014-1-22,64,58,52,57,49,41,87,73,62,29.56,29.03,60,34,0,0.00
2014-1-23,59,55,50,52,47,41,79,75,66,29.93,29.58,54,27,0,0.00
2014-1-24,64,54,45,59,49,39,88,83,76,30.14,29.66,26,19,0,0.00
2014-1-25,64,61,54,63,56,43,100,84,66,30.36,29.91,41,30,0,0.00
2014-2-11,68,67,65,64,60,55,93,77,68,30.15,30.02,28,15,0,0.00
2014-2-12,69,63,59,59,55,48,82,76,65,30.25,29.96,37,25,0,0.00
2014-2-13,71,64,49,68,57,39,96,81,66,30.16,29.50,52,39,0,0.00
2014-2-14,63,62,61,46,46,45,55,55,55,29.87,29.85,39,36,0,0.00
2014-2-15,70,65,61,59,54,48,72,68,63,30.03,29.80,28,27,0,0.00
2014-2-16,72,67,61,57,52,48,82,59,52,30.22,30.12,17,12,0,0.00
2014-2-17,77,73,68,70,65,57,94,77,68,30.19,30.14,15,9,0,0.00
2014-2-18,72,66,63,68,64,61,100,90,77,30.12,30.03,18,13,0,0.00
2014-2-19,72,65,63,68,63,61,100,91,73,30.03,29.90,25,12,0,0.00
2014-2-20,70,66,64,66,64,52,100,89,63,29.99,29.85,28,10,0,0.00
2014-2-22,68,45,68,62,8,-100,81,54,81,29.97,29.97,28,28,0,0.00
2014-2-23,82,77,70,75,71,68,94,83,66,30.09,29.95,23,17,0,0.00
2014-2-24,82,76,72,73,68,62,91,77,63,30.09,30.01,23,13,0,0.00
2014-2-25,72,72,72,56,56,56,58,58,58,30.05,30.03,23,16,0,0.00
2014-2-26,68,56,44,57,48,29,88,76,56,29.91,29.68,31,24,0,0.00
2014-2-27,47,45,44,41,34,29,79,65,56,29.73,29.68,31,28,0,0.00
2014-2-28,52,43,34,44,31,22,75,63,42,30.43,30.31,29,23,0,0.00
2014-3-1,53,47,39,42,35,28,75,63,51,30.43,30.05,29,22,0,0.00
2014-3-2,56,52,50,49,41,-100,87,72,53,30.24,29.74,43,31,0,0.00
2014-3-3,57,51,43,51,45,36,93,81,67,29.96,29.69,30,21,0,0.00
2014-3-4,63,56,51,55,51,47,94,83,70,29.96,29.80,21,12,0,0.00
2014-3-15,-200,0,200,-100,-100,-100,89,89,89,30.12,30.12,24,24,0,0.00
2014-3-16,-200,0,200,-100,-100,-100,89,89,89,30.12,30.12,24,24,0,0.00
2014-3-18,70,69,63,67,64,56,90,85,79,30.12,29.96,31,28,0,0.00
2014-3-19,70,68,65,67,62,57,90,82,71,30.11,29.78,46,31,0,0.00
2014-3-20,70,51,65,58,17,-100,76,48,57,30.08,29.97,31,25,0,0.00
2014-3-21,70,69,68,52,50,47,53,50,47,30.14,30.12,7,7,0,0.00
2014-3-22,79,60,71,72,34,-100,91,60,57,30.12,30.08,23,15,0,0.00
2014-3-23,82,76,73,75,71,68,94,84,70,30.12,30.05,20,10,0,0.00
2014-3-24,66,63,61,63,58,56,90,86,84,30.12,30.07,23,17,0,0.00
2014-3-25,66,62,60,53,51,49,74,68,54,30.27,30.12,18,15,0,0.00
2014-3-26,63,62,61,50,47,46,61,58,55,30.24,30.23,25,16,0,0.00
2014-3-27,68,68,67,64,64,63,86,86,86,29.96,29.96,22,21,0,0.00
2014-3-29,68,57,68,60,33,-100,76,63,76,30.12,30.11,21,20,0,0.00
2014-3-30,72,69,68,60,56,54,76,64,58,30.12,30.04,37,24,0,0.00
2014-3-31,77,72,68,65,58,52,74,61,50,30.12,30.00,32,21,0,0.00
2014-4-1,71,68,64,57,54,53,71,62,53,30.12,30.10,16,12,0,0.00
2014-4-2,74,69,63,65,61,53,85,74,63,30.15,30.03,28,15,0,0.00
2014-4-3,59,59,59,49,49,49,68,68,68,30.04,30.04,18,18,0,0.00
2014-4-4,70,66,61,62,57,49,81,73,57,30.00,29.88,40,31,0,0.00
2014-4-5,61,59,57,52,48,45,78,68,59,30.02,29.97,37,30,0,0.00
2014-4-6,62,59,53,51,48,45,75,66,62,30.05,29.96,41,32,0,0.00
2014-4-7,62,61,58,55,52,51,88,72,69,30.06,29.93,63,33,0,0.00
2014-4-21,-200,0,200,-100,-100,-100,0,0,100,30.15,30.15,30,30,0,0.00
2014-4-22,71,70,68,67,65,62,90,85,81,29.99,29.71,32,24,0,0.00
2014-4-23,71,70,68,67,65,60,95,85,77,29.74,29.59,38,29,0,0.00
2014-4-24,68,65,63,62,51,46,81,60,52,30.06,29.63,54,26,0,0.00
2014-4-25,73,73,73,69,69,69,86,86,86,29.95,29.95,14,14,0,0.00
2014-4-26,73,72,72,69,68,67,91,85,82,30.03,29.89,30,22,0,0.00
2014-4-27,78,77,76,70,70,69,79,78,76,29.99,29.97,13,12,0,0.00
2014-4-28,80,77,74,76,73,69,92,88,83,29.97,29.77,21,18,0,0.00
2014-4-29,75,74,73,75,73,72,100,97,91,29.71,29.68,25,11,0,0.00
2014-5-1,70,68,67,63,60,56,86,75,61,30.01,30.00,17,12,0,0.00
2014-5-2,86,80,72,77,74,66,90,82,71,29.97,29.84,34,21,0,0.00
2014-5-3,84,73,64,74,67,56,91,79,64,30.00,29.94,20,12,0,0.00
2014-5-4,73,68,66,58,57,55,71,67,59,30.04,30.00,18,17,0,0.00
2014-5-5,77,70,61,63,58,46,81,66,49,30.00,29.96,23,17,0,0.00
2014-5-7,57,57,57,46,46,46,67,67,67,30.05,30.05,10,10,0,0.00
2014-5-22,-200,0,200,-100,-100,-100,0,0,100,0.00,40.00,26,26,0,0.00
2014-5-24,-200,0,200,-100,-100,-100,0,0,100,0.00,40.00,21,21,0,0.00
2014-5-25,70,65,68,67,56,-100,92,84,90,30.07,30.02,28,28,0,0.00
2014-5-26,70,67,66,67,59,54,90,75,59,30.09,29.94,30,25,0,0.00
2014-5-27,73,70,66,65,59,49,77,69,54,30.17,30.11,32,26,0,0.00
2014-5-28,81,75,72,73,68,63,83,79,74,30.09,29.99,30,26,0,0.00
2014-5-30,81,79,77,74,73,71,88,81,76,30.05,30.03,13,10,0,0.00
2014-6-1,81,79,77,76,74,71,92,84,73,30.01,29.95,21,15,0,0.00
2014-6-2,75,75,74,72,71,69,91,88,83,29.99,29.96,25,21,0,0.00
2014-6-6,86,81,79,74,74,73,84,78,65,29.99,29.96,14,12,0,0.00
2014-6-7,77,76,75,72,71,70,83,83,83,29.99,29.97,21,21,0,0.00
2014-6-8,82,82,82,72,72,72,70,70,70,29.99,29.99,18,18,0,0.00
2014-6-9,82,77,72,70,66,63,74,70,66,29.98,29.97,17,15,0,0.00
2014-6-10,77,77,76,77,77,76,100,100,100,29.97,29.96,23,18,0,0.00
2014-6-11,78,74,72,68,66,63,82,74,69,30.06,30.00,23,14,0,0.00
2014-6-12,66,65,63,57,55,53,71,70,62,30.11,30.09,23,17,0,0.00
2014-6-13,55,54,54,45,44,44,71,68,66,30.12,30.12,18,16,0,0.00
2014-6-28,-200,0,200,-100,-100,-100,0,0,100,0.00,40.00,23,23,0,0.00
2014-6-29,-200,0,200,-100,-100,-100,0,0,100,0.00,40.00,23,23,0,0.00
2014-6-30,73,73,73,71,71,71,91,91,91,29.93,29.93,26,26,0,0.00
2014-7-1,81,80,79,70,67,66,69,66,65,30.15,30.11,18,18,0,0.00
2014-7-2,86,84,79,79,78,78,95,82,78,30.06,30.00,21,17,0,0.00
2014-7-4,87,83,81,80,75,74,80,76,70,30.01,29.85,25,19,0,0.00
2014-7-6,90,85,81,77,75,74,80,73,66,30.05,29.92,18,12,0,0.00
2014-7-7,81,81,81,74,73,73,80,78,76,29.93,29.90,0,0,0,0.00
2014-7-9,90,90,90,80,80,80,72,72,72,30.07,30.07,5,5,0,0.00
2014-7-10,89,86,82,83,77,74,82,76,69,30.13,30.06,11,9,0,0.00
2014-7-11,82,82,82,77,76,76,84,81,80,30.09,30.08,18,17,0,0.00
2014-7-12,82,82,81,75,75,75,84,80,77,30.15,30.14,17,13,0,0.00
2014-7-13,81,80,79,74,73,73,84,78,76,30.16,30.13,14,12,0,0.00
2014-7-14,79,79,79,74,74,74,84,84,84,30.11,30.09,21,20,0,0.00
2014-7-15,82,81,81,77,74,73,84,79,76,29.88,29.87,30,28,0,0.00
2014-7-16,82,79,77,75,74,72,91,83,70,30.10,29.98,37,32,0,0.00
2014-7-17,81,79,77,75,74,72,91,85,76,30.31,30.16,29,26,0,0.00
2014-8-2,-200,0,200,-100,0,200,0,0,100,0.00,40.00,5,5,0,0.00
2014-8-3,79,67,73,71,61,68,91,70,69,30.22,30.21,15,10,0,0.00
2014-8-4,84,79,77,78,70,66,81,72,66,30.24,30.21,16,8,0,0.00
2014-8-5,84,82,81,77,76,71,84,81,73,30.24,30.10,22,16,0,0.00
2014-8-6,85,81,76,79,75,74,100,82,70,30.02,29.91,39,19,0,0.00
2014-8-7,81,81,81,78,78,78,92,92,92,29.99,29.97,16,16,0,0.00
2014-8-8,84,83,81,80,79,79,93,86,84,30.11,29.99,14,11,0,0.00
2014-8-10,91,86,81,76,75,74,84,71,61,30.09,30.06,11,8,0,0.00
2014-8-11,92,90,88,79,78,77,69,67,66,30.07,30.03,5,3,0,0.00
2014-8-14,93,89,84,78,78,77,80,69,61,30.03,29.97,11,7,0,0.00
2014-8-15,89,85,84,79,77,77,81,76,68,30.08,30.02,11,6,0,0.00
2014-8-21,84,78,75,74,73,69,92,83,70,29.99,29.91,17,14,0,0.00
2014-8-22,81,74,71,67,64,63,76,71,62,29.96,29.87,22,16,0,0.00
2014-8-23,77,71,66,65,62,56,90,72,49,29.81,29.77,18,15,0,0.00
2014-9-5,66,65,65,54,54,53,66,64,62,30.14,30.12,18,18,0,0.00
2014-9-6,71,68,64,67,62,55,88,79,71,30.12,29.94,23,13,0,0.00
2014-9-7,81,79,72,73,70,63,76,74,69,30.18,30.15,15,12,0,0.00
2014-9-8,81,78,75,72,68,66,87,71,66,30.19,30.02,6,3,0,0.00
2014-9-9,83,81,79,75,73,72,84,76,70,30.16,30.09,20,12,0,0.00
2014-9-10,83,82,81,76,75,75,84,80,77,30.06,30.02,11,10,0,0.00
2014-9-12,82,82,81,75,74,72,84,78,70,30.00,29.99,11,8,0,0.00
2014-9-14,89,85,81,76,75,75,82,72,63,30.02,29.99,11,11,0,0.00
2014-9-15,89,86,81,78,77,76,84,74,67,30.05,30.02,14,12,0,0.00
2014-9-18,86,83,81,75,74,73,84,74,65,29.94,29.91,7,6,0,0.00
2014-9-19,86,81,77,76,74,74,91,82,70,29.97,29.91,11,6,0,0.00
2014-9-20,77,77,77,74,74,74,91,91,91,29.94,29.94,11,11,0,0.00
2014-9-21,84,82,81,73,72,71,76,71,64,29.91,29.91,14,12,0,0.00
2014-9-22,79,79,79,71,71,71,76,76,76,29.90,29.90,9,9,0,0.00
2014-9-25,72,70,68,56,56,55,64,61,58,30.39,30.39,9,9,0,0.00
2014-9-26,75,70,64,60,56,51,61,60,60,30.28,30.21,7,4,0,0.00
2014-9-27,72,72,72,60,60,60,66,66,66,30.06,30.06,18,18,0,0.00
2014-10-13,81,71,66,75,58,52,84,64,50,30.18,29.75,44,31,0,0.00
2014-10-14,79,76,72,69,66,60,82,71,62,30.33,30.24,21,12,0,0.00
2014-10-15,82,78,77,75,73,66,91,82,76,30.27,29.88,23,22,0,0.00
2014-10-17,82,77,72,69,67,66,91,72,57,29.99,29.93,14,13,0,0.00
2014-10-18,75,75,75,67,67,67,75,75,75,29.96,29.96,9,9,0,0.00
2014-10-19,82,79,75,67,65,63,75,61,53,29.99,29.96,17,13,0,0.00
2014-10-20,79,78,77,71,68,65,76,72,62,29.99,29.96,17,8,0,0.00
2014-10-26,83,79,75,67,65,63,67,62,57,30.06,29.98,16,12,0,0.00
2014-10-27,82,79,77,69,67,63,71,65,61,30.09,29.97,28,19,0,0.00
2014-10-28,79,79,78,68,66,63,72,64,58,30.16,30.11,23,9,0,0.00
2014-10-30,66,64,61,60,56,51,81,75,69,29.96,29.92,30,30,0,0.00
2014-10-31,67,67,66,61,59,57,81,77,71,29.75,29.70,30,30,0,0.00
2014-11-1,77,72,65,74,67,58,95,85,74,29.78,29.60,46,31,0,0.00
2014-11-2,79,75,74,74,72,72,95,90,84,30.03,29.61,29,26,0,0.00
2014-11-3,75,71,68,72,68,66,95,91,82,30.15,30.06,26,23,0,0.00
2014-11-4,68,64,62,67,63,60,100,95,90,30.16,30.11,22,20,0,0.00
2014-11-15,-200,0,200,-100,0,200,0,0,100,0.00,40.00,14,14,0,0.00
2014-11-16,61,53,54,58,48,42,89,73,60,29.97,29.65,23,17,0,0.00
2014-11-17,59,54,52,49,42,36,77,63,52,30.33,29.68,58,44,0,0.00
2014-11-18,73,69,63,65,59,53,74,69,59,30.30,30.16,34,32,0,0.00
2014-11-19,76,72,68,72,66,55,91,80,64,30.25,29.93,44,37,0,0.00
2014-11-20,72,65,61,59,53,49,94,66,50,30.24,30.12,29,13,0,0.00
2014-11-21,68,64,62,62,54,47,100,70,50,30.37,30.08,40,29,0,0.00
2014-11-23,83,77,72,76,69,63,77,75,74,30.16,29.93,25,23,0,0.00
2014-12-2,72,69,66,61,60,58,76,73,70,30.39,30.36,20,18,0,0.00
2014-12-5,68,67,63,64,60,53,86,80,70,30.30,30.24,31,25,0,0.00
2014-12-20,-200,0,200,-100,0,200,0,0,100,0.00,40.00,25,25,0,0.00
2014-12-24,74,74,73,67,66,65,78,77,74,30.18,30.15,18,9,0,0.00
2014-12-25,72,72,72,65,62,56,78,70,58,30.02,29.99,34,32,0,0.00
2014-12-30,75,75,75,72,71,70,91,88,83,30.13,30.10,8,7,0,0.00
2014-12-31,59,59,59,51,51,51,73,73,73,30.31,30.31,29,29,0,0.00